STARLINK-1459 (45769 NORAD) Tracking and Keplerian Element Data

This shows tracking and keplerian element data for the satellite.

Feedback or suggestion? Click here.




ElementValue
Catalog45769
NameSTARLINK-1459
Epoch Orbit437
Epoch Day184.92720656
Epoch Year2020
RAAN201.1392
Inclination53.0008
Eccentricity0.0001303
Argument of Perigee130.972
Mean Anonmoly229.1405
Mean Motion15.61945125
Decay Rate-0.00187689
L11 45769U 20038AR 20184.92720656 -.00187689 00000-0 -21586-2 0 9991
L22 45769 53.0008 201.1392 0001303 130.9720 229.1405 15.61945125 4372

Live tracking and technical data element details for STARLINK-1459 (NORAD 45769). STARLINK-1459 can be tracked NOW for your location showing map with azimuth and elevation plus other details from your city location.

Track the satellite on the map from your city or location and see movement details for azimuth, elevation, latitude, longitude, range, height, and movement on the map or in text.







IsCatalogInMostPopularTable: catalog: 45769, numindb: 4
Update: records affected: 1



GetName: 45769 STARLINK-1459

Hit Count: updated at: Sat, 04 Jul 2020 02:01:33 GMT